Tracking 19145 objects as of 25-Apr-2018
HD Live streaming from Space Station
objects crossing your sky now

OPS 7218 (TRANSIT 16)

Track OPS 7218 (TRANSIT 16) now!
10-day predictions
OPS 7218 (TRANSIT 16) is classified as:


NORAD ID: 2807
Int'l Code: 1967-048A
Perigee: 1,063.4 km
Apogee: 1,090.1 km
Inclination: 89.6 °
Period: 106.6 minutes
Semi major axis: 7447 km
RCS: 1.5463 m2 (large)
Launch date: May 18, 1967
Source: United States (US)
Launch site: AIR FORCE WESTERN TEST RANGE (AFWTR)
aabbcc
Your satellite tracking list
Your tracking list is empty




NASA's NSSDC Master Catalog

Two Line Element Set (TLE):
1 02807U 67048A   18114.90119087  .00080073  00000-0  12329+0 0  9996
2 02807  89.6180  92.8332 0017895 256.6591 160.1757 13.50715237506880
Source of the keplerian elements: AFSPC